When you browse on this site, cookies collect data to enhance your experience and personalize the content and advertising you see.
Visit our Privacy Policy to learn more. By continuing to use the site, you agree to this use of cookies and data.
  • In Lithuania
  • List of Countries
  • For 7 days
  • Water Temperature
  • Satellite Maps
  • Weather Map
  • Weather Widgets
  • user-avatar
    Login

    Hourly Weather Nha Trang

    Today, 22 January, Tuesday

    Time Temperature Precipitation Wind Pressure Humidity
    00:00 +23°C° 0.2 mm 4 mps 750 mmHg 93%
    01:00 +23°C° 0.2 mm 4 mps 750 mmHg 93%
    02:00 +23°C° 0.1 mm 4 mps 750 mmHg 93%
    03:00 +23°C° 0.1 mm 4 mps 750 mmHg 93%
    04:00 +23°C° 0.1 mm 4 mps 749 mmHg 93%
    05:00 +23°C° 0.2 mm 5 mps 750 mmHg 92%
    06:00 +23°C° 0.2 mm 5 mps 750 mmHg 92%
    07:00 +23°C° 0.2 mm 5 mps 750 mmHg 92%
    08:00 +25°C° 0.2 mm 5 mps 750 mmHg 88%
    09:00 +25°C° 0.2 mm 5 mps 751 mmHg 83%
    10:00 +26°C° 0.2 mm 6 mps 751 mmHg 79%
    11:00 +27°C° 0.2 mm 6 mps 751 mmHg 75%
    12:00 +28°C° 0.2 mm 6 mps 750 mmHg 71%
    13:00 +28°C° 0.2 mm 6 mps 750 mmHg 67%
    14:00 +28°C° 0.2 mm 6 mps 750 mmHg 70%
    15:00 +27°C° 0.2 mm 6 mps 749 mmHg 73%
    16:00 +26°C° 0.2 mm 6 mps 749 mmHg 75%
    17:00 +24°C° 0.2 mm 6 mps 749 mmHg 81%
    18:00 +23°C° 0.2 mm 5 mps 750 mmHg 86%
    19:00 +22°C° 0.2 mm 5 mps 750 mmHg 91%
    20:00 +22°C° 0.3 mm 5 mps 750 mmHg 92%
    21:00 +22°C° 0.3 mm 5 mps 751 mmHg 92%
    22:00 +22°C° 0.3 mm 5 mps 751 mmHg 93%
    23:00 +22°C° 0.2 mm 5 mps 751 mmHg 93%

    Tomorrow, 23 January, Wednesday

    Time Temperature Precipitation Wind Pressure Humidity
    00:00 +22°C° 0.2 mm 5 mps 751 mmHg 92%
    01:00 +22°C° 0.2 mm 5 mps 751 mmHg 92%
    02:00 +21°C° 0.1 mm 5 mps 751 mmHg 92%
    03:00 +21°C° 0.1 mm 5 mps 750 mmHg 93%
    04:00 +21°C° 0.1 mm 5 mps 750 mmHg 93%
    05:00 +21°C° 0.1 mm 5 mps 750 mmHg 92%
    06:00 +21°C° 0.1 mm 5 mps 750 mmHg 92%
    07:00 +21°C° 0.1 mm 5 mps 750 mmHg 91%
    08:00 +22°C° 0.2 mm 5 mps 751 mmHg 85%
    09:00 +25°C° 0.2 mm 5 mps 751 mmHg 79%
    10:00 +26°C° 0.2 mm 5 mps 752 mmHg 73%
    11:00 +27°C° 0.1 mm 5 mps 751 mmHg 68%
    12:00 +28°C° 0.1 mm 6 mps 750 mmHg 64%
    13:00 +28°C° 0.1 mm 6 mps 750 mmHg 60%
    14:00 +28°C° 0 mm 6 mps 749 mmHg 62%
    15:00 +27°C° 0 mm 6 mps 749 mmHg 63%
    16:00 +27°C° 0 mm 6 mps 748 mmHg 65%
    17:00 +25°C° 0 mm 5 mps 749 mmHg 73%
    18:00 +23°C° 0 mm 5 mps 749 mmHg 80%
    19:00 +21°C° 0 mm 5 mps 750 mmHg 87%
    20:00 +21°C° 0 mm 5 mps 750 mmHg 88%
    21:00 +21°C° 0 mm 5 mps 751 mmHg 88%
    22:00 +20°C° 0 mm 5 mps 751 mmHg 89%
    23:00 +20°C° 0.1 mm 5 mps 751 mmHg 89%

    Day after tomorrow, 24 January, Thursday

    Time Temperature Precipitation Wind Pressure Humidity
    00:00 +20°C° 0.1 mm 5 mps 750 mmHg 90%
    01:00 +20°C° 0.1 mm 5 mps 750 mmHg 90%
    02:00 +20°C° 0 mm 4 mps 750 mmHg 90%
    03:00 +20°C° 0 mm 4 mps 749 mmHg 91%
    04:00 +19°C° 0 mm 4 mps 749 mmHg 91%
    05:00 +20°C° 0 mm 4 mps 750 mmHg 90%
    06:00 +20°C° 0 mm 4 mps 750 mmHg 89%
    07:00 +20°C° 0 mm 4 mps 751 mmHg 87%
    08:00 +22°C° 0 mm 4 mps 751 mmHg 78%
    09:00 +25°C° 0 mm 4 mps 752 mmHg 68%
    10:00 +27°C° 0 mm 5 mps 752 mmHg 59%
    11:00 +28°C° 0 mm 5 mps 751 mmHg 55%
    12:00 +28°C° 0 mm 5 mps 750 mmHg 52%
    13:00 +29°C° 0 mm 5 mps 750 mmHg 48%
    14:00 +29°C° 0 mm 5 mps 749 mmHg 52%
    15:00 +28°C° 0 mm 5 mps 749 mmHg 55%
    16:00 +28°C° 0 mm 5 mps 748 mmHg 58%
    17:00 +26°C° 0 mm 5 mps 749 mmHg 67%
    18:00 +23°C° 0 mm 4 mps 750 mmHg 76%
    19:00 +21°C° 0 mm 4 mps 750 mmHg 85%
    20:00 +21°C° 0 mm 4 mps 751 mmHg 86%
    21:00 +21°C° 0 mm 4 mps 751 mmHg 87%
    22:00 +20°C° 0 mm 4 mps 751 mmHg 88%
    23:00 +20°C° 0 mm 4 mps 751 mmHg 88%

    25 January, Friday

    Time Temperature Precipitation Wind Pressure Humidity
    00:00 +20°C° 0 mm 4 mps 750 mmHg 88%
    01:00 +20°C° 0 mm 3 mps 750 mmHg 88%
    02:00 +20°C° 0 mm 4 mps 750 mmHg 88%
    03:00 +20°C° 0 mm 4 mps 749 mmHg 88%
    04:00 +20°C° 0 mm 4 mps 749 mmHg 88%
    05:00 +20°C° 0 mm 4 mps 750 mmHg 87%
    06:00 +20°C° 0 mm 4 mps 750 mmHg 87%
    07:00 +20°C° 0 mm 4 mps 751 mmHg 86%
    08:00 +23°C° 0 mm 4 mps 751 mmHg 78%
    09:00 +26°C° 0 mm 4 mps 751 mmHg 69%
    10:00 +28°C° 0 mm 5 mps 751 mmHg 60%
    11:00 +29°C° 0 mm 5 mps 751 mmHg 58%
    12:00 +29°C° 0 mm 5 mps 750 mmHg 56%
    13:00 +30°C° 0 mm 5 mps 749 mmHg 53%
    14:00 +30°C° 0 mm 5 mps 749 mmHg 57%
    15:00 +29°C° 0 mm 5 mps 748 mmHg 60%
    16:00 +28°C° 0 mm 6 mps 748 mmHg 63%
    17:00 +27°C° 0 mm 5 mps 749 mmHg 70%
    18:00 +25°C° 0 mm 5 mps 750 mmHg 78%
    19:00 +22°C° 0 mm 5 mps 751 mmHg 85%
    20:00 +22°C° 0 mm 5 mps 751 mmHg 85%
    21:00 +22°C° 0 mm 5 mps 752 mmHg 86%
    22:00 +22°C° 0 mm 5 mps 752 mmHg 86%
    23:00 +21°C° 0 mm 5 mps 752 mmHg 86%

    26 January, Saturday

    Time Temperature Precipitation Wind Pressure Humidity
    00:00 +21°C° 0 mm 5 mps 751 mmHg 86%
    01:00 +21°C° 0 mm 5 mps 751 mmHg 86%
    02:00 +21°C° 0 mm 5 mps 751 mmHg 86%
    03:00 +21°C° 0 mm 5 mps 750 mmHg 87%
    04:00 +21°C° 0 mm 5 mps 750 mmHg 87%
    05:00 +21°C° 0 mm 5 mps 750 mmHg 86%
    06:00 +21°C° 0 mm 5 mps 751 mmHg 85%
    07:00 +21°C° 0 mm 5 mps 751 mmHg 83%
    08:00 +23°C° 0 mm 5 mps 751 mmHg 76%
    09:00 +26°C° 0 mm 6 mps 752 mmHg 69%
    10:00 +28°C° 0 mm 6 mps 752 mmHg 62%
    11:00 +28°C° 0 mm 6 mps 751 mmHg 61%
    12:00 +29°C° 0 mm 7 mps 751 mmHg 59%
    13:00 +29°C° 0 mm 7 mps 750 mmHg 58%
    14:00 +29°C° 0 mm 7 mps 750 mmHg 60%
    15:00 +28°C° 0 mm 7 mps 749 mmHg 62%
    16:00 +27°C° 0 mm 7 mps 749 mmHg 64%
    17:00 +26°C° 0 mm 7 mps 750 mmHg 69%
    18:00 +24°C° 0 mm 7 mps 750 mmHg 74%
    19:00 +22°C° 0 mm 6 mps 751 mmHg 80%
    20:00 +22°C° 0 mm 6 mps 751 mmHg 80%
    21:00 +22°C° 0 mm 6 mps 752 mmHg 80%
    22:00 +22°C° 0 mm 6 mps 752 mmHg 80%
    23:00 +21°C° 0.1 mm 6 mps 752 mmHg 81%

    27 January, Sunday

    Time Temperature Precipitation Wind Pressure Humidity
    00:00 +21°C° 0.1 mm 6 mps 752 mmHg 82%
    01:00 +21°C° 0.1 mm 6 mps 751 mmHg 83%
    02:00 +21°C° 0.1 mm 6 mps 751 mmHg 83%
    03:00 +21°C° 0.1 mm 6 mps 751 mmHg 84%
    04:00 +21°C° 0.1 mm 6 mps 751 mmHg 84%
    05:00 +21°C° 0.1 mm 5 mps 751 mmHg 85%
    06:00 +21°C° 0.1 mm 5 mps 751 mmHg 85%
    07:00 +21°C° 0.1 mm 5 mps 752 mmHg 86%
    08:00 +22°C° 0.2 mm 5 mps 752 mmHg 82%
    09:00 +23°C° 0.2 mm 6 mps 752 mmHg 79%
    10:00 +24°C° 0.2 mm 6 mps 752 mmHg 75%
    11:00 +26°C° 0.2 mm 6 mps 752 mmHg 72%
    12:00 +27°C° 0.2 mm 6 mps 751 mmHg 69%
    13:00 +27°C° 0.2 mm 6 mps 751 mmHg 67%
    14:00 +27°C° 0.2 mm 6 mps 750 mmHg 70%
    15:00 +26°C° 0.2 mm 6 mps 750 mmHg 73%
    16:00 +24°C° 0.2 mm 6 mps 749 mmHg 77%
    17:00 +24°C° 0.1 mm 6 mps 750 mmHg 81%
    18:00 +23°C° 0.1 mm 6 mps 750 mmHg 85%
    19:00 +22°C° 0.1 mm 6 mps 751 mmHg 89%
    20:00 +22°C° 0.1 mm 6 mps 751 mmHg 90%
    21:00 +21°C° 0.1 mm 5 mps 752 mmHg 91%
    22:00 +21°C° 0.1 mm 5 mps 752 mmHg 92%
    23:00 +21°C° 0.1 mm 5 mps 752 mmHg 91%
    Show more